Regional Weather Roundup
Issued by NWS

Home | Current Version | Previous Version | Graphics & Text | Print | Product List | Glossary On
Versions: 1 2 3 4 5 6 7 8 9 10 11 12 13 14 15 16 17 18 19 20 21 22 23 24 25 26 27 28 29 30 31 32 33 34 35 36 37 38 39 40 41 42 43 44 45 46 47 48 49 50
000
ASUS43 KLSX 280610
RWRMO

WEATHER SUMMARY FOR MISSOURI
NATIONAL WEATHER SERVICE SPRINGFIELD MO
100 AM CDT TUE MAR 28 2017

NOTE: "FAIR" INDICATES FEW OR NO CLOUDS BELOW 12,000 FEET WITH NO
       SIGNIFICANT WEATHER AND/OR OBSTRUCTIONS TO VISIBILITY.
       CURRENT SKY AND/OR WEATHER CONDITIONS ARE NOT AVAILABLE FOR
       CHILLICOTHE AND FARMINGTON.

MOZ001>031-035>038-043-044-053-054-280700-
...NORTHERN AND WESTERN MISSOURI...

CITY           SKY/WX    TMP DP  RH WIND       PRES   REMARKS
KANSAS CTY INT CLOUDY    49  46  90 N5        30.01R
6HR MIN TEMP:  49; 6HR MAX TEMP:  52;

KANSAS C DTWN  CLOUDY    52  46  80 E5        30.01R
6HR MIN TEMP:  52; 6HR MAX TEMP:  54;

LEE`S SUMMIT   CLOUDY    50  47  89 N5        30.01R
6HR MIN TEMP:  50; 6HR MAX TEMP:  51;

ST JOSEPH      CLOUDY    48  46  93 CALM      30.02S
6HR MIN TEMP:  46; 6HR MAX TEMP:  52;

CHILLICOTHE      N/A     49  47  93 N3        30.02R
6HR MIN TEMP:  48; 6HR MAX TEMP:  51;

KIRKSVILLE     CLOUDY    47  46  97 N6        30.00S
6HR MIN TEMP:  47; 6HR MAX TEMP:  50;


$$
MOZ066>068-077>081-088>096-101>105-280700-
...SOUTHWEST MISSOURI...

CITY           SKY/WX    TMP DP  RH WIND       PRES   REMARKS
SPRINGFIELD    CLOUDY    51  49  92 NW5       29.97R
6HR MIN TEMP:  52; 6HR MAX TEMP:  53;

JOPLIN         CLOUDY    51  50  96 N5        29.99S
6HR MIN TEMP:  51; 6HR MAX TEMP:  52;

BRANSON        CLOUDY    52  50  93 CALM      29.98R

$$
MOZ032>034-039>042-045>050-055>058-069>072-280700-
...CENTRAL MISSOURI...

CITY           SKY/WX    TMP DP  RH WIND       PRES   REMARKS
COLUMBIA       CLOUDY    52  51  97 N8        29.97F
6HR MIN TEMP:  52; 6HR MAX TEMP:  54; 6HR PCP:  0.03;

JEFFERSON CITY CLOUDY    56  51  84 N5        29.97S
6HR MIN TEMP:  56; 6HR MAX TEMP:  56; 6HR PCP:  0.02;

ROLLA          CLOUDY    52  52 100 NW3       29.95F FOG
6HR MIN TEMP:  52; 6HR MAX TEMP:  54; 6HR PCP:  0.01;

SEDALIA        CLOUDY    50  49  96 N9        29.99S FOG
6HR MIN TEMP:  50; 6HR MAX TEMP:  53;

WHITEMAN AFB   CLOUDY    49  49 100 N7        29.98F
WARRENSBURG    CLOUDY    48  46  93 N5        30.00S
OSAGE BEACH    CLOUDY   N/A N/A N/A CALM      29.98R

$$
MOZ051-052-059>065-280700-
...EAST CENTRAL MISSOURI...

CITY           SKY/WX    TMP DP  RH WIND       PRES   REMARKS
ST LOUIS INTL  CLOUDY    55  52  89 NW8       29.96R
6HR MIN TEMP:  54; 6HR MAX TEMP:  58;

SPIRIT OF STL  CLOUDY    56  53  90 NW6       29.96R
6HR MIN TEMP:  52; 6HR MAX TEMP:  57;

ST CHARLES     CLOUDY    54  53  97 N7        29.96R
6HR MIN TEMP:  52; 6HR MAX TEMP:  58;


$$
MOZ072>076-082>087-097>100-106>115-280700-
...SOUTH CENTRAL AND SOUTHEAST MISSOURI...

CITY           SKY/WX    TMP DP  RH WIND       PRES   REMARKS
CAPE GIRARDEAU CLEAR     53  50  89 NW5       29.91S
6HR MIN TEMP:  51; 6HR MAX TEMP:  62; 6HR PCP: TRACE;

FARMINGTON     CLOUDY    54  52  93 NW8       29.95R
6HR MIN TEMP:  54; 6HR MAX TEMP:  59;

POPLAR BLUFF   CLOUDY    58  54  86 N9        29.94R
6HR MIN TEMP:  56; 6HR MAX TEMP:  67;

WEST PLAINS    CLEAR     52  49  89 N3        29.96R
6HR MIN TEMP:  52; 6HR MAX TEMP:  59;


$$




USA.gov is the U.S. government's official web portal to all federal, state and local government web resources and services.